TimeEST,TemperatureF,Dew PointF,Humidity,Sea Level PressureIn,VisibilityMPH,Wind Direction,Wind SpeedMPH,Gust SpeedMPH,PrecipitationIn,Events,Conditions,WindDirDegrees,DateUTC
12:15 AM,30.2,24.8,80,29.91,10.0,Calm,Calm,-,N/A,,Clear,0,2014-01-20 05:15:00
12:35 AM,30.2,24.8,80,29.90,10.0,Calm,Calm,-,N/A,,Clear,0,2014-01-20 05:35:00
12:55 AM,28.4,23.0,80,29.90,10.0,Calm,Calm,-,N/A,,Clear,0,2014-01-20 05:55:00
1:15 AM,30.2,24.8,80,29.89,10.0,SSW,4.6,-,N/A,,Clear,210,2014-01-20 06:15:00
1:35 AM,30.2,24.8,80,29.89,10.0,SSW,4.6,-,N/A,,Clear,210,2014-01-20 06:35:00
1:55 AM,30.2,24.8,80,29.88,10.0,SW,5.8,-,N/A,,Clear,220,2014-01-20 06:55:00
2:15 AM,32.0,24.8,75,29.88,10.0,SW,3.5,-,N/A,,Clear,230,2014-01-20 07:15:00
2:35 AM,32.0,24.8,75,29.88,10.0,WSW,4.6,-,N/A,,Clear,240,2014-01-20 07:35:00
2:55 AM,32.0,26.6,80,29.87,10.0,WSW,6.9,-,N/A,,Clear,240,2014-01-20 07:55:00
3:15 AM,35.6,26.6,70,29.88,10.0,WSW,8.1,-,N/A,,Clear,240,2014-01-20 08:15:00
3:35 AM,33.8,26.6,75,29.88,10.0,WSW,8.1,-,N/A,,Clear,240,2014-01-20 08:35:00
3:55 AM,33.8,26.6,75,29.88,10.0,WSW,4.6,-,N/A,,Clear,240,2014-01-20 08:55:00
4:15 AM,32.0,26.6,80,29.88,10.0,Calm,Calm,-,N/A,,Clear,0,2014-01-20 09:15:00
4:35 AM,32.0,26.6,80,29.87,10.0,SW,4.6,-,N/A,,Clear,220,2014-01-20 09:35:00
4:55 AM,32.0,26.6,80,29.87,10.0,SW,3.5,-,N/A,,Clear,220,2014-01-20 09:55:00
5:15 AM,30.2,26.6,86,29.87,10.0,SW,3.5,-,N/A,,Clear,230,2014-01-20 10:15:00
5:35 AM,28.4,26.6,93,29.87,10.0,WSW,4.6,-,N/A,,Clear,240,2014-01-20 10:35:00
5:55 AM,30.2,26.6,86,29.87,10.0,SW,3.5,-,N/A,,Clear,230,2014-01-20 10:55:00
6:15 AM,32.0,26.6,80,29.87,10.0,SW,3.5,-,N/A,,Clear,220,2014-01-20 11:15:00
6:35 AM,30.2,26.6,86,29.88,10.0,Calm,Calm,-,N/A,,Clear,0,2014-01-20 11:35:00
6:55 AM,28.4,24.8,86,29.87,10.0,Calm,Calm,-,N/A,,Clear,0,2014-01-20 11:55:00
7:15 AM,28.4,24.8,86,29.86,10.0,Calm,Calm,-,N/A,,Clear,0,2014-01-20 12:15:00
7:35 AM,28.4,24.8,86,29.86,10.0,SW,6.9,-,N/A,,Clear,230,2014-01-20 12:35:00
7:55 AM,32.0,26.6,80,29.86,10.0,SW,8.1,-,N/A,,Clear,230,2014-01-20 12:55:00
8:15 AM,35.6,26.6,70,29.86,10.0,WSW,4.6,-,N/A,,Clear,240,2014-01-20 13:15:00
8:35 AM,37.4,26.6,65,29.86,10.0,SW,3.5,-,N/A,,Clear,220,2014-01-20 13:35:00
8:55 AM,41.0,26.6,57,29.87,10.0,SW,4.6,-,N/A,,Clear,230,2014-01-20 13:55:00
9:15 AM,42.8,26.6,53,29.87,10.0,SW,3.5,-,N/A,,Clear,230,2014-01-20 14:15:00
9:35 AM,46.4,23.0,40,29.87,10.0,SW,3.5,-,N/A,,Clear,230,2014-01-20 14:35:00
9:55 AM,50.0,21.2,32,29.87,10.0,WSW,6.9,-,N/A,,Clear,250,2014-01-20 14:55:00
10:15 AM,51.8,21.2,30,29.86,10.0,WSW,8.1,-,N/A,,Clear,250,2014-01-20 15:15:00
10:35 AM,53.6,21.2,28,29.85,10.0,WSW,9.2,16.1,N/A,,Clear,250,2014-01-20 15:35:00
10:55 AM,53.6,21.2,28,29.85,10.0,West,13.8,20.7,N/A,,Clear,280,2014-01-20 15:55:00
11:15 AM,55.4,21.2,26,29.84,10.0,West,8.1,-,N/A,,Clear,270,2014-01-20 16:15:00
11:35 AM,55.4,21.2,26,29.84,10.0,West,11.5,20.7,N/A,,Clear,260,2014-01-20 16:35:00
11:55 AM,55.4,23.0,29,29.83,10.0,West,11.5,17.3,N/A,,Clear,270,2014-01-20 16:55:00
12:15 PM,57.2,21.2,25,29.81,10.0,WSW,10.4,19.6,N/A,,Clear,250,2014-01-20 17:15:00
12:35 PM,59.0,23.0,25,29.80,10.0,West,6.9,16.1,N/A,,Clear,260,2014-01-20 17:35:00
12:55 PM,59.0,23.0,25,29.79,10.0,WSW,15.0,21.9,N/A,,Clear,240,2014-01-20 17:55:00
1:15 PM,60.8,23.0,23,29.78,10.0,WSW,12.7,19.6,N/A,,Clear,240,2014-01-20 18:15:00
1:35 PM,60.8,23.0,23,29.77,10.0,WSW,16.1,21.9,N/A,,Clear,250,2014-01-20 18:35:00
1:55 PM,62.6,23.0,22,29.77,10.0,WSW,16.1,20.7,N/A,,Clear,240,2014-01-20 18:55:00
2:15 PM,62.6,23.0,22,29.77,10.0,WSW,10.4,19.6,N/A,,Clear,250,2014-01-20 19:15:00
2:35 PM,62.6,23.0,22,29.77,10.0,WSW,11.5,23.0,N/A,,Clear,250,2014-01-20 19:35:00
2:55 PM,62.6,23.0,22,29.77,10.0,WSW,11.5,17.3,N/A,,Clear,250,2014-01-20 19:55:00
3:15 PM,62.6,23.0,22,29.77,10.0,WSW,16.1,19.6,N/A,,Clear,240,2014-01-20 20:15:00
3:35 PM,60.8,23.0,23,29.78,10.0,WSW,8.1,18.4,N/A,,Clear,240,2014-01-20 20:35:00
3:55 PM,60.8,23.0,23,29.78,10.0,WSW,10.4,18.4,N/A,,Clear,240,2014-01-20 20:55:00
4:15 PM,60.8,23.0,23,29.79,10.0,SW,11.5,16.1,N/A,,Clear,230,2014-01-20 21:15:00
4:35 PM,60.8,23.0,23,29.79,10.0,WSW,6.9,19.6,N/A,,Clear,250,2014-01-20 21:35:00
4:55 PM,59.0,24.8,27,29.79,10.0,WSW,9.2,-,N/A,,Clear,240,2014-01-20 21:55:00
5:15 PM,57.2,24.8,29,29.80,10.0,SW,5.8,-,N/A,,Clear,230,2014-01-20 22:15:00
5:35 PM,55.4,24.8,31,29.80,10.0,WSW,4.6,-,N/A,,Clear,240,2014-01-20 22:35:00
5:55 PM,53.6,24.8,33,29.81,10.0,SSW,5.8,-,N/A,,Clear,210,2014-01-20 22:55:00
6:15 PM,51.8,24.8,35,29.82,10.0,SW,3.5,-,N/A,,Clear,230,2014-01-20 23:15:00
6:35 PM,48.2,26.6,43,29.82,10.0,Calm,Calm,-,N/A,,Clear,0,2014-01-20 23:35:00
6:55 PM,42.8,26.6,53,29.82,10.0,Calm,Calm,-,N/A,,Clear,0,2014-01-20 23:55:00
7:15 PM,42.8,28.4,57,29.84,10.0,Calm,Calm,-,N/A,,Clear,0,2014-01-21 00:15:00
7:35 PM,42.8,28.4,57,29.84,10.0,Calm,Calm,-,N/A,,Clear,0,2014-01-21 00:35:00
7:55 PM,41.0,26.6,57,29.85,10.0,Calm,Calm,-,N/A,,Clear,0,2014-01-21 00:55:00
8:15 PM,41.0,26.6,57,29.85,10.0,Calm,Calm,-,N/A,,Clear,0,2014-01-21 01:15:00
8:35 PM,42.8,26.6,53,29.86,10.0,Calm,Calm,-,N/A,,Clear,0,2014-01-21 01:35:00
8:55 PM,37.4,26.6,65,29.87,10.0,Calm,Calm,-,N/A,,Clear,0,2014-01-21 01:55:00
9:15 PM,37.4,28.4,70,29.87,10.0,Calm,Calm,-,N/A,,Clear,0,2014-01-21 02:15:00
9:35 PM,35.6,26.6,70,29.87,10.0,Calm,Calm,-,N/A,,Clear,0,2014-01-21 02:35:00
9:55 PM,33.8,28.4,81,29.87,10.0,Calm,Calm,-,N/A,,Clear,0,2014-01-21 02:55:00
10:15 PM,33.8,28.4,81,29.87,10.0,Calm,Calm,-,N/A,,Clear,0,2014-01-21 03:15:00
10:35 PM,33.8,28.4,81,29.86,10.0,Calm,Calm,-,N/A,,Clear,0,2014-01-21 03:35:00
10:55 PM,33.8,28.4,81,29.86,10.0,Calm,Calm,-,N/A,,Clear,0,2014-01-21 03:55:00
11:15 PM,32.0,26.6,80,29.85,10.0,Calm,Calm,-,N/A,,Clear,0,2014-01-21 04:15:00
11:35 PM,32.0,28.4,87,29.84,10.0,Calm,Calm,-,N/A,,Clear,0,2014-01-21 04:35:00
11:55 PM,32.0,28.4,87,29.84,10.0,Calm,Calm,-,N/A,,Clear,0,2014-01-21 04:55:00